Wetbulb
33.34 34.30 34.51 33.95 33.93 36.46 35.13 36.44 33.86 35.14 36.48 41.42 43.46 44.33 45.73 47.20 46.23 43.46 42.12 42.86 42.94 42.24 42.74 44.14 46.31 46.93 47.89 49.15 48.92 50.65 55.50 55.30 54.68 54.94 54.77 54.57 54.61 55.33 55.61 55.55 56.17 56.55 56.15 55.58
28.88 33.41 33.57 30.61 33.48 35.02 36.03 37.89 37.40 37.50 36.33 45.00 47.41 47.90 46.86 46.22 43.90 41.29 39.73 39.38 38.94 39.60 39.70 40.02 40.67 41.92 43.34 43.66 44.71 46.72 46.35 46.35 46.74 48.25 51.60 55.48 55.11 55.19 55.45 56.08 56.10 55.70 55.51 55.71
23.19 29.00 29.11 26.29 32.64 32.99 35.67 39.82 38.56 34.28 40.01 45.26 45.76 46.05 45.58 44.27 41.89 39.27 37.97 37.04 36.44 36.21 36.38 37.45 38.80 39.87 39.28 40.02 41.60 41.87 42.17 42.76 43.10 44.26 45.09 45.70 47.73 50.38 54.34 55.41 56.15 56.27 56.36 56.15
23.96 26.75 18.34 31.59 36.31 39.90 37.59 40.00 41.38 41.81 43.52 45.21 41.82 40.79 41.73 43.27 40.19 37.68 36.37 35.46 34.72 34.69 34.67 35.03 37.50 38.32 37.83 37.29 36.48 36.87 37.20 37.77 38.91 39.97 41.44 42.06 43.47 44.19 44.48 45.90 48.76 54.59 56.07 56.48
21.00 21.95 26.18 29.74 37.47 38.16 37.78 38.57 43.46 42.77 43.20 39.82 38.94 38.47 36.44 39.39 38.48 36.33 35.02 34.40 33.73 33.51 33.76 34.29 35.92 36.39 35.43 34.22 33.79 33.33 33.07 34.21 35.40 36.47 37.30 37.57 38.51 39.05 40.54 42.83 41.56 40.91 37.35 36.70
25.14 20.10 17.18 30.66 37.01 42.87 41.45 34.03 43.01 44.69 42.13 39.77 42.15 34.63 34.37 36.60 36.20 34.42 33.69 33.25 32.44 32.35 32.25 32.45 33.96 35.53 33.20 31.76 31.25 30.32 30.51 31.16 33.34 33.92 33.79 34.15 35.84 35.89 37.01 36.78 34.55 32.76 30.76 31.11
23.06 21.65 25.21 34.22 37.51 41.16 29.13 34.95 43.84 45.78 42.97 43.10 38.80 38.30 34.99 34.78 33.28 33.45 33.19 32.39 32.49 31.38 30.33 31.04 32.96 33.66 31.61 30.16 28.73 29.45 30.34 30.33 30.72 31.24 31.54 32.01 33.06 33.87 34.05 33.03 32.12 30.37 29.55 29.40
23.99 23.25 20.12 38.87 40.17 33.53 37.69 42.61 41.45 41.48 39.49 35.29 34.71 33.77 32.67 31.73 31.21 31.06 30.01 30.35 30.65 29.58 29.19 30.35 31.55 32.08 30.11 29.17 29.14 29.35 29.01 28.58 28.53 29.09 29.93 30.71 30.83 31.37 31.78 31.43 30.19 29.77 29.22 28.47
28.02 27.12 37.01 38.13 39.03 40.40 42.05 40.10 39.44 38.74 37.56 35.47 33.58 32.04 30.62 28.81 28.45 28.40 28.48 28.53 29.05 28.68 28.61 29.06 29.84 31.08 29.43 29.41 29.01 28.37 27.12 26.74 27.24 28.15 28.56 28.82 28.54 28.25 28.14 29.05 29.02 28.34 27.97 27.23
33.63 35.54 35.60 36.64 36.46 36.53 38.70 39.16 39.26 39.18 37.04 34.75 31.20 29.85 28.15 28.02 27.28 26.81 27.48 27.38 28.01 27.40 26.43 26.61 27.90 28.40 29.81 30.58 28.92 27.70 26.03 25.43 26.51 26.46 26.39 27.22 27.56 27.88 27.13 26.79 26.32 26.53 26.79 26.89
33.38 35.98 35.65 35.00 35.66 35.10 34.33 34.41 33.15 32.59 32.00 30.54 29.14 27.54 27.20 26.26 25.76 25.17 24.41 25.03 25.42 25.45 24.90 24.74 25.70 25.77 27.34 29.08 28.52 26.42 26.12 25.46 24.76 25.08 25.36 24.90 25.63 26.03 25.88 27.17 27.52 25.19 25.23 25.92
30.46 36.83 35.61 33.60 34.15 34.41 32.23 30.84 30.33 28.84 27.29 27.90 26.81 25.56 25.60 23.90 23.82 22.66 21.95 22.77 22.73 23.11 22.99 23.99 24.30 23.67 24.06 25.66 27.90 25.50 24.27 23.78 22.91 22.61 22.24 22.23 22.29 22.70 26.17 26.29 26.94 26.89 27.12 26.22
33.22 34.51 32.62 33.10 33.22 32.88 29.90 28.96 28.27 27.04 26.29 24.75 25.01 24.63 23.47 21.90 21.93 22.25 20.79 20.71 20.40 20.74 21.31 21.82 22.28 22.68 22.18 21.33 23.60 23.70 23.56 20.07 19.20 18.32 18.12 17.44 17.07 17.27 15.47 19.14 23.45 24.42 24.73 24.67
34.81 36.38 30.76 31.73 27.21 28.37 27.78 26.92 27.26 25.61 25.78 24.83 23.65 22.87 21.71 20.22 19.75 18.91 18.46 19.10 19.21 18.85 19.01 19.76 19.75 19.00 20.80 19.73 20.44 22.43 21.43 20.80 19.01 17.23 16.48 16.40 15.85 16.16 16.25 15.36 13.62 14.06 18.79 20.67
31.24 30.99 29.26 28.92 27.85 26.74 26.78 25.77 23.70 22.06 21.30 20.51 20.96 20.17 19.97 17.92 16.62 16.74 17.97 18.26 18.11 16.35 16.00 16.86 16.36 15.72 17.49 19.19 17.45 16.32 18.29 17.85 16.97 16.32 15.87 15.50 15.38 14.29 13.59 12.76 12.13 11.38 11.66 12.76
30.68 29.51 28.89 27.12 25.91 25.54 24.82 23.31 20.47 18.61 17.54 16.20 15.96 16.37 16.47 16.37 15.33 14.66 14.46 14.78 12.93 10.89 12.03 10.30 12.92 11.48 13.84 13.81 13.67 13.99 14.31 15.02 13.82 15.15 15.61 14.70 13.57 12.49 11.76 10.78 9.96 9.44 8.45 7.93
28.39 26.70 26.95 26.02 25.18 24.78 23.98 23.64 21.68 20.37 19.48 18.58 17.91 17.86 16.60 15.03 13.19 11.51 10.37 10.92 8.54 7.24 7.69 7.32 6.69 9.20 11.72 10.89 10.99 11.48 13.32 13.25 11.70 12.83 13.84 13.27 12.23 11.68 10.76 8.78 7.75 7.26 5.95 4.84
26.30 25.35 25.17 25.13 23.50 21.89 21.09 21.38 20.15 18.88 16.63 16.06 14.59 12.35 10.43 9.87 7.34 5.29 2.62 1.34 2.97 5.19 5.10 5.22 7.34 10.10 11.19 11.73 13.14 13.33 12.83 13.12 12.76 11.21 10.76 9.62 10.45 9.87 7.76 6.73 6.59 5.37 3.33 3.04
22.53 22.00 22.07 21.37 20.63 19.58 18.09 16.33 15.67 15.17 14.26 13.31 10.56 6.99 5.12 2.43 0.32 -3.15 -3.45 0.77 0.27 1.93 4.32 5.63 15.78 12.01 11.89 14.67 12.74 11.73 10.16 8.60 9.95 8.90 9.06 4.46 4.57 6.17 3.57 1.70 0.68 -0.95 1.04 1.68
17.62 17.99 17.71 16.67 16.84 15.73 13.77 13.75 13.20 11.53 10.85 8.43 6.40 4.84 2.57 -3.31 -4.57 -1.63 -0.12 -1.33 -1.50 3.15 7.80 9.11 10.95 11.90 11.47 9.86 9.48 9.07 7.10 4.93 8.54 4.54 2.44 1.08 -3.32 -5.84 -3.67 -1.87 -1.51 -5.48 -8.02 -6.21
13.21 13.75 13.25 12.14 11.12 12.02 12.07 12.02 12.05 10.12 9.42 8.86 7.45 2.64 -0.89 -4.04 -5.31 -4.75 1.50 2.94 3.79 7.35 8.98 8.51 9.14 9.70 10.08 7.99 6.92 1.61 1.52 -0.56 -2.48 -3.75 -7.31 -11.10 -9.47 -8.38 -11.83 -15.81 -14.73 -15.81 -13.46 -13.28
12.90 12.50 11.69 11.99 11.76 10.89 11.12 10.96 9.92 6.89 4.63 1.27 -3.53 -4.58 -1.28 2.93 -0.52 1.72 -2.59 4.20 7.19 2.22 5.63 6.60 6.71 -0.68 3.85 3.61 4.23 -1.41 1.27 -0.20 -2.99 -4.04 -9.29 -13.28 -15.45 -17.26 -17.81 -17.63 -16.18 -17.26 -18.17 -19.08
14.16 13.92 13.59 12.52 12.32 12.14 11.60 11.12 9.43 8.99 5.81 5.06 4.83 3.93 6.20 9.34 8.37 2.52 1.37 7.86 7.39 2.26 6.56 1.33 -1.10 -2.83 -4.22 -6.63 -8.26 -11.46 -10.74 -10.74 -11.28 -12.37 -13.82 -16.54 -17.26 -19.08 -16.90 -15.45 -17.63 -19.80 -19.80 -16.72
15.04 15.14 14.34 14.66 15.07 14.62 12.89 13.60 14.14 12.49 7.47 10.65 6.96 3.63 9.13 3.64 0.50 8.97 7.58 2.55 -2.93 -6.10 -4.97 -7.11 -5.30 -4.39 -8.38 -12.55 -13.82 -14.54 -15.27 -16.36 -16.54 -18.35 -13.28 -13.64 -17.99 -17.99 -18.71 -20.16 -17.45 -21.07 -20.89 -16.54
17.32 17.18 16.71 16.35 16.16 15.22 15.26 15.13 14.08 13.77 13.00 12.98 12.93 12.91 11.68 10.55 1.68 2.03 -2.73 -1.75 0.49 -0.84 -4.71 -8.74 -5.48 -8.38 -14.74 -16.00 -16.00 -15.63 -15.09 -15.63 -16.18 -18.54 -17.81 -17.45 -16.18 -16.72 -18.35 -20.53 -20.71 -19.98 -21.07 -21.25
20.38 19.29 18.66 18.79 17.12 16.28 15.93 15.58 12.39 12.30 11.66 6.76 6.09 -3.13 -4.41 -1.15 1.96 1.77 -3.03 -3.21 -0.53 0.19 -4.21 -9.65 -12.55 -14.36 -14.73 -12.96 -14.73 -15.27 -14.18 -8.20 -11.46 -14.73 -17.81 -16.72 -18.71 -16.36 -16.72 -16.36 -19.08 -18.17 -19.98 -20.16
16.11 14.06 13.67 12.68 12.36 11.97 11.87 13.05 10.24 8.87 8.44 7.85 6.03 1.70 -0.60 -6.75 -6.93 -2.26 -4.03 -6.57 -6.02 -6.57 -10.19 -12.91 -13.46 -8.92 -9.83 -11.83 -11.28 -11.28 -12.55 -8.92 -6.21 -6.02 -11.83 -15.27 -19.26 -18.17 -15.63 -12.91 -14.54 -15.81 -19.08 -23.07
MSLP
1009.05 1008.45 1008.08 1007.53 1006.93 1006.45 1006.37 1006.12 1005.95 1004.75 1004.37 1003.79 1004.47 1004.91 1005.55 1005.72 1005.82 1005.60 1005.80 1005.95 1006.13 1006.52 1006.84 1006.90 1006.95 1007.13 1007.24 1007.32 1007.35 1006.93 1006.65 1007.18 1007.38 1007.46 1007.47 1007.81 1008.07 1008.23 1008.42 1008.64 1008.77 1008.90 1009.14 1009.38
1009.87 1008.78 1008.19 1007.24 1006.20 1005.59 1005.13 1005.00 1005.10 1004.86 1004.39 1004.13 1004.20 1005.01 1005.98 1006.82 1006.89 1007.23 1007.74 1008.41 1008.26 1008.42 1008.36 1008.17 1008.22 1008.16 1008.56 1008.85 1008.78 1008.18 1007.90 1008.15 1008.23 1008.04 1007.85 1007.82 1007.73 1007.72 1007.89 1008.10 1008.24 1008.44 1008.56 1008.64
1010.53 1009.71 1008.61 1006.79 1005.33 1004.61 1003.88 1003.59 1003.72 1003.67 1003.82 1004.24 1004.75 1005.38 1006.03 1007.40 1008.25 1009.56 1010.21 1009.80 1009.94 1009.96 1009.76 1009.53 1009.68 1010.46 1010.12 1010.06 1009.85 1009.38 1009.28 1009.28 1009.11 1009.12 1008.93 1008.73 1008.50 1008.14 1007.93 1007.73 1007.56 1007.59 1007.65 1007.89
1011.10 1010.20 1008.53 1005.56 1004.55 1003.28 1002.79 1002.43 1002.86 1003.19 1003.69 1004.58 1005.52 1006.85 1007.99 1008.50 1008.94 1010.39 1010.98 1010.48 1011.56 1011.40 1011.21 1011.16 1011.10 1011.04 1010.94 1010.94 1010.66 1010.46 1010.39 1010.54 1010.60 1010.34 1009.87 1009.59 1009.33 1009.12 1008.98 1008.69 1008.28 1007.75 1007.40 1007.13
1011.53 1010.57 1008.34 1005.88 1004.36 1003.82 1003.43 1002.92 1002.78 1003.39 1004.39 1005.96 1006.29 1007.59 1009.51 1010.17 1010.80 1011.61 1012.10 1012.55 1012.48 1012.21 1012.71 1012.26 1011.91 1011.91 1012.13 1012.21 1012.12 1011.95 1011.76 1011.62 1011.48 1011.16 1010.83 1010.65 1010.43 1010.29 1010.01 1009.56 1009.39 1009.22 1009.46 1009.22
1011.70 1010.83 1008.84 1005.67 1004.59 1003.71 1003.62 1003.51 1003.34 1003.93 1005.15 1005.97 1006.57 1008.44 1010.96 1011.45 1012.26 1012.86 1013.20 1013.29 1013.09 1013.35 1013.72 1013.45 1013.39 1013.29 1013.44 1013.45 1013.19 1013.04 1013.08 1012.95 1012.61 1012.30 1012.06 1011.73 1011.54 1011.30 1011.10 1010.90 1010.98 1011.06 1011.02 1011.09
1011.32 1010.75 1008.80 1006.27 1005.28 1004.83 1004.87 1005.14 1004.41 1004.36 1005.29 1006.26 1007.82 1009.12 1011.14 1012.57 1013.39 1013.75 1014.00 1013.99 1014.29 1014.60 1014.95 1015.04 1014.78 1014.48 1014.21 1014.36 1014.40 1014.56 1014.26 1013.91 1013.56 1013.22 1012.85 1012.61 1012.26 1012.01 1011.89 1011.88 1011.95 1012.02 1012.02 1012.19
1011.01 1010.68 1009.14 1006.89 1005.98 1005.83 1005.32 1005.62 1005.62 1005.93 1006.65 1007.98 1009.47 1010.92 1012.36 1013.50 1014.03 1014.50 1014.50 1014.61 1015.06 1015.22 1015.46 1015.52 1015.33 1015.12 1015.14 1015.01 1015.58 1015.43 1015.23 1014.96 1014.73 1014.34 1013.95 1013.56 1013.21 1013.03 1012.80 1012.63 1012.71 1012.99 1013.11 1013.23
1010.53 1009.42 1008.66 1008.11 1007.67 1007.18 1006.76 1006.73 1007.18 1008.10 1008.71 1009.54 1010.59 1012.28 1013.06 1014.51 1014.98 1015.67 1015.76 1016.07 1016.44 1016.58 1016.72 1016.84 1016.70 1016.18 1015.89 1016.07 1016.18 1016.19 1016.11 1015.76 1015.52 1015.31 1014.94 1014.67 1014.31 1014.26 1014.01 1013.97 1013.85 1013.90 1013.97 1014.07
1010.31 1009.66 1009.56 1009.24 1009.05 1008.80 1009.14 1008.70 1009.20 1009.67 1010.21 1011.16 1012.14 1013.59 1014.48 1015.63 1016.33 1017.04 1017.33 1017.41 1017.60 1017.63 1017.50 1017.50 1017.53 1017.16 1016.90 1016.89 1017.00 1017.13 1016.98 1016.91 1016.72 1016.47 1016.28 1016.08 1015.78 1015.71 1015.65 1015.59 1015.45 1015.40 1015.20 1015.01
1010.46 1010.25 1010.19 1010.64 1010.73 1010.85 1011.39 1011.40 1011.19 1011.93 1012.41 1013.14 1013.56 1014.95 1015.75 1016.56 1017.45 1017.97 1018.24 1018.36 1018.42 1018.45 1018.56 1018.70 1018.98 1018.82 1018.38 1017.92 1018.15 1018.07 1017.91 1017.95 1017.96 1017.82 1017.59 1017.53 1017.46 1017.45 1017.33 1017.36 1017.03 1016.83 1016.77 1016.66
1011.28 1010.75 1010.74 1011.88 1012.31 1012.53 1012.45 1013.17 1013.91 1014.09 1014.62 1015.35 1015.86 1016.75 1017.54 1018.22 1018.70 1019.21 1019.65 1019.74 1019.65 1019.79 1019.97 1020.11 1020.13 1019.92 1019.75 1019.49 1019.28 1019.31 1018.96 1019.08 1019.21 1019.02 1018.95 1018.96 1018.96 1018.98 1018.96 1018.82 1018.63 1018.26 1018.17 1017.92
1012.61 1012.45 1012.51 1013.06 1013.75 1014.11 1014.35 1014.76 1015.67 1016.12 1016.68 1017.57 1018.24 1018.75 1019.22 1019.69 1020.35 1020.47 1020.75 1021.01 1021.07 1021.38 1021.44 1021.31 1021.19 1021.12 1021.15 1020.98 1020.74 1020.30 1020.13 1020.28 1020.27 1020.24 1020.24 1020.24 1020.27 1020.32 1020.39 1020.37 1020.15 1019.75 1019.49 1019.39
1013.69 1013.41 1013.93 1014.27 1015.33 1015.83 1015.94 1016.56 1017.39 1018.02 1018.59 1019.09 1019.68 1020.12 1020.37 1020.85 1021.48 1021.77 1021.89 1022.51 1022.81 1022.80 1022.54 1022.60 1022.71 1022.65 1022.36 1022.03 1021.79 1021.47 1021.47 1021.38 1021.44 1021.46 1021.42 1021.40 1021.40 1021.42 1021.46 1021.43 1021.50 1021.60 1021.39 1020.98
1014.86 1014.62 1015.09 1016.02 1016.58 1017.08 1017.48 1017.90 1018.57 1019.37 1019.94 1020.37 1020.85 1021.31 1021.85 1022.25 1022.82 1023.27 1023.59 1023.95 1023.93 1023.62 1023.56 1023.61 1023.51 1023.44 1023.10 1022.84 1022.70 1022.60 1022.38 1022.46 1022.31 1022.21 1022.23 1022.24 1022.32 1022.51 1022.63 1022.74 1022.92 1022.93 1022.55 1022.39
1016.11 1016.19 1016.43 1016.75 1017.39 1017.94 1018.41 1019.00 1019.81 1020.87 1021.34 1021.99 1022.57 1023.00 1023.56 1023.98 1024.38 1024.77 1024.95 1024.90 1024.73 1025.01 1025.05 1024.94 1024.84 1024.61 1024.06 1023.75 1023.57 1023.38 1023.23 1023.02 1022.90 1022.92 1023.04 1023.14 1023.30 1023.47 1023.81 1024.02 1024.15 1024.32 1024.09 1024.12
1017.16 1017.30 1017.43 1017.87 1018.47 1018.98 1019.40 1020.11 1020.76 1021.36 1022.04 1022.72 1023.37 1023.82 1024.45 1025.08 1025.36 1025.74 1026.08 1026.28 1026.29 1026.33 1026.30 1026.17 1025.96 1025.29 1024.86 1024.42 1024.14 1024.07 1023.90 1023.86 1023.77 1023.81 1024.04 1024.29 1024.43 1024.40 1024.63 1025.01 1025.23 1025.53 1025.61 1025.48
1018.53 1018.56 1018.55 1018.95 1019.51 1020.02 1020.77 1021.44 1021.97 1022.39 1023.17 1023.87 1024.53 1025.31 1025.84 1026.41 1026.85 1027.30 1027.46 1027.36 1027.20 1027.19 1027.14 1026.79 1026.26 1025.77 1025.37 1025.05 1024.83 1024.72 1024.67 1024.67 1024.71 1024.90 1025.11 1025.23 1025.48 1025.52 1025.72 1025.94 1026.34 1026.67 1026.88 1026.84
1020.22 1020.22 1020.42 1020.79 1021.21 1021.70 1022.53 1023.05 1023.40 1023.81 1024.59 1025.14 1025.83 1026.71 1027.36 1027.69 1028.04 1028.25 1028.08 1028.05 1028.19 1028.14 1027.99 1027.34 1026.82 1026.45 1026.16 1025.86 1025.60 1025.57 1025.59 1025.71 1025.80 1026.02 1026.18 1026.48 1026.62 1026.71 1026.89 1027.14 1027.53 1027.90 1027.90 1028.03
1021.64 1021.68 1022.05 1022.25 1022.67 1023.22 1023.77 1024.19 1024.46 1025.10 1025.95 1026.39 1027.06 1027.82 1028.36 1028.79 1028.74 1028.77 1028.71 1029.06 1028.93 1028.77 1028.30 1027.88 1027.51 1027.27 1027.02 1026.81 1026.60 1026.64 1026.71 1026.84 1026.94 1027.35 1027.53 1027.80 1028.00 1028.13 1028.29 1028.33 1028.58 1028.86 1028.91 1028.89
1022.67 1023.03 1023.23 1023.62 1024.21 1024.52 1024.78 1025.10 1025.59 1026.43 1027.02 1027.30 1027.76 1028.58 1028.99 1029.03 1029.04 1029.12 1029.38 1029.39 1029.37 1029.04 1028.80 1028.50 1028.28 1028.17 1028.04 1027.90 1027.82 1027.83 1027.94 1028.17 1028.43 1028.71 1029.13 1029.50 1029.52 1029.55 1029.85 1029.86 1029.84 1029.86 1029.83 1029.70
1024.00 1024.19 1024.44 1024.69 1024.96 1025.36 1025.76 1026.04 1026.41 1026.95 1027.51 1028.03 1028.43 1028.75 1029.10 1029.42 1029.47 1029.62 1029.70 1029.68 1029.59 1029.40 1029.23 1029.13 1029.07 1029.10 1029.06 1028.90 1028.95 1028.96 1029.10 1029.24 1029.42 1029.47 1029.87 1030.11 1030.59 1030.91 1031.03 1030.66 1030.69 1030.44 1030.30 1030.17
1024.71 1025.02 1025.33 1025.66 1025.98 1026.37 1026.75 1027.03 1027.32 1027.62 1028.16 1028.57 1028.97 1029.27 1029.39 1029.50 1029.65 1029.91 1029.94 1029.89 1029.86 1029.83 1029.79 1029.85 1029.89 1029.78 1029.83 1030.04 1029.93 1029.94 1030.02 1030.07 1030.17 1030.26 1030.38 1030.50 1030.65 1030.76 1030.83 1030.84 1030.80 1030.76 1030.70 1030.66
1025.13 1025.45 1025.79 1026.18 1026.44 1026.74 1027.10 1027.44 1027.62 1027.92 1028.21 1028.59 1028.90 1029.18 1029.30 1029.63 1029.85 1029.80 1029.89 1030.06 1030.16 1030.24 1030.33 1030.32 1030.41 1030.29 1030.47 1030.76 1030.62 1030.61 1030.60 1030.62 1030.62 1030.61 1030.66 1030.70 1030.75 1030.81 1030.84 1030.87 1030.88 1030.87 1030.89 1030.88
1025.44 1025.78 1026.14 1026.37 1026.50 1026.77 1027.07 1027.44 1027.83 1028.17 1028.50 1028.80 1029.00 1029.07 1029.31 1029.53 1029.85 1030.05 1030.12 1030.27 1030.45 1030.59 1030.81 1030.92 1030.55 1030.75 1031.60 1031.21 1031.05 1030.96 1030.90 1030.79 1030.68 1030.66 1030.73 1030.80 1030.86 1030.86 1030.85 1030.86 1030.86 1030.86 1031.00 1031.02
1025.54 1025.87 1026.18 1026.30 1026.69 1026.93 1027.22 1027.56 1028.02 1028.32 1028.68 1029.18 1029.49 1029.81 1029.68 1029.77 1029.91 1030.15 1030.36 1030.49 1030.62 1030.79 1031.00 1031.32 1031.22 1031.22 1031.53 1031.19 1031.03 1030.96 1030.93 1030.73 1030.42 1030.43 1030.66 1030.87 1030.98 1030.82 1030.65 1030.55 1030.62 1030.32 1030.31 1030.13
1026.24 1026.59 1026.95 1027.34 1027.52 1027.65 1027.84 1028.22 1028.65 1028.94 1029.00 1029.26 1029.61 1029.92 1030.05 1030.16 1030.27 1030.36 1030.46 1030.60 1030.68 1030.77 1030.92 1031.18 1030.94 1030.51 1030.54 1030.73 1030.78 1030.45 1030.30 1030.01 1029.77 1029.70 1030.01 1030.27 1030.52 1030.31 1029.96 1029.62 1029.60 1029.55 1029.63 1029.79
Wind_Speed
6 8 6 10 14 12 12 9 6 3 7 7 9 9 7 9 10 14 17 16 16 14 13 13 13 13 12 11 10 9 3 4 4 5 6 6 6 8 9 10 11 13 13 13
4 7 8 13 13 14 13 13 8 10 19 2 5 11 9 7 11 14 16 14 15 14 15 15 14 15 12 12 10 9 11 10 9 9 8 5 8 9 9 11 12 12 13 14
4 5 10 8 2 9 10 10 8 8 9 6 7 5 14 13 13 10 8 13 14 13 13 13 14 11 12 12 10 11 11 11 12 10 9 9 9 8 6 10 12 14 15 15
3 4 4 5 16 5 8 12 12 8 6 5 15 16 13 11 15 11 10 13 12 11 12 11 10 10 10 11 12 12 12 12 11 10 10 10 10 10 10 9 9 9 13 14
2 3 9 13 3 7 9 4 3 4 13 18 20 18 15 13 13 12 10 8 9 11 10 11 11 10 10 10 10 11 13 12 12 11 11 11 11 11 10 9 10 12 14 15
2 1 5 5 10 3 5 5 4 4 17 18 13 7 3 9 11 11 11 10 11 11 10 12 11 10 8 9 10 12 12 11 11 11 11 11 10 10 9 9 10 9 12 13
3 4 8 9 12 10 1 3 8 6 19 12 5 6 15 12 11 11 10 11 10 11 10 10 9 9 12 10 12 11 10 11 12 12 12 12 10 10 9 8 8 9 10 10
2 3 10 6 9 4 3 6 12 10 13 20 18 17 14 12 11 10 11 12 12 10 11 12 11 10 12 12 8 10 12 12 13 12 10 10 11 10 11 9 10 10 9 9
6 5 4 5 9 11 8 12 16 13 15 14 18 15 14 11 11 10 11 10 9 9 11 11 11 10 10 11 8 8 10 13 13 13 12 12 13 12 9 10 9 9 8 8
2 6 7 8 11 16 15 12 13 15 15 12 15 13 14 11 10 9 9 9 9 10 12 12 11 12 11 9 7 8 10 11 10 13 14 13 11 12 11 10 10 10 9 9
5 6 10 12 12 13 16 14 18 17 14 14 15 13 11 11 10 9 10 10 10 10 11 12 11 11 11 9 8 9 10 10 10 8 10 12 14 11 11 15 14 10 10 10
2 3 8 8 8 11 15 13 13 14 16 14 13 12 12 11 10 10 10 9 10 11 11 11 10 11 11 11 8 7 9 8 6 6 6 6 7 10 26 25 26 27 25 15
1 9 13 13 12 12 15 15 13 14 13 13 12 11 13 12 11 13 10 11 11 10 10 10 11 11 10 9 8 9 8 7 6 7 6 6 6 6 6 10 24 25 25 24
8 4 8 10 9 12 16 17 17 14 12 12 12 11 12 12 12 12 12 10 9 9 10 9 9 9 8 6 6 10 8 10 6 5 5 6 6 6 6 7 7 8 17 19
11 14 13 11 12 11 10 11 14 11 10 12 11 11 10 12 11 10 8 8 9 10 10 9 9 9 8 6 8 7 6 5 5 5 6 6 6 7 6 7 7 6 6 7
6 8 9 11 10 9 10 11 13 10 10 9 9 10 9 10 10 9 9 9 9 9 8 7 7 6 6 6 5 5 6 9 8 6 6 6 6 6 6 6 6 7 7 7
4 4 5 7 9 10 11 9 10 10 11 11 10 10 10 10 10 10 9 8 7 7 5 5 5 5 5 5 5 4 4 6 7 6 6 5 5 6 6 6 6 6 6 6
9 9 11 8 9 10 10 10 10 10 9 9 9 8 8 7 7 5 4 4 6 8 8 7 4 6 6 6 6 5 5 6 6 6 5 6 6 6 5 6 6 5 4 6
9 10 10 11 9 9 8 8 8 8 8 7 8 7 5 5 4 3 2 6 6 5 7 6 9 8 7 8 7 5 6 6 6 6 5 6 6 5 5 5 4 4 3 4
9 9 10 11 11 9 9 7 9 9 6 6 6 6 7 5 3 5 5 6 2 2 4 6 6 7 7 8 8 5 6 5 6 5 4 5 4 4 4 5 4 3 3 3
9 8 10 9 8 8 8 6 7 7 5 5 6 6 5 2 3 3 5 4 5 5 5 6 5 4 5 5 6 5 5 5 5 4 4 3 4 4 4 3 3 3 3 2
6 8 7 7 8 7 6 5 6 6 6 6 5 4 5 4 4 4 2 2 2 5 4 3 4 5 5 6 4 4 4 4 3 3 3 3 3 3 2 2 2 1 1 0
6 6 6 6 6 6 5 5 4 5 5 5 5 4 2 2 2 2 0 2 1 3 3 3 3 5 5 4 3 3 3 4 3 2 2 2 2 2 2 2 1 1 1 1
6 5 5 5 5 6 6 4 4 4 3 3 4 4 4 2 3 2 2 2 3 3 1 2 2 4 4 2 3 2 2 2 1 1 1 2 1 1 1 2 1 2 2 3
5 6 5 5 5 3 6 6 5 4 4 4 4 4 4 2 3 2 2 1 3 1 1 3 2 3 2 1 1 1 2 2 2 2 1 1 2 3 3 3 3 3 3 3
5 3 2 3 2 2 3 4 3 3 3 2 0 1 2 1 2 2 2 3 3 3 3 3 2 1 1 1 2 2 3 3 2 3 3 3 3 3 3 4 4 4 4 4
5 4 4 3 3 3 3 3 2 2 2 3 3 2 3 2 2 2 1 1 2 3 3 3 2 3 3 2 3 3 3 3 3 3 3 3 3 4 4 5 5 5 4 4
Wind_Direction
291 291 275 268 270 265 225 231 244 302 248 201 185 198 279 350 33 46 47 44 53 55 53 47 46 41 42 39 30 32 163 175 227 220 203 202 207 216 221 221 223 223 220 221
287 306 333 301 276 253 250 224 248 273 270 261 180 167 138 81 45 43 48 46 51 51 54 50 43 37 37 35 25 42 51 50 33 24 14 249 231 223 222 226 224 228 228 229
270 328 317 292 224 291 269 193 214 246 243 182 123 64 133 120 95 77 73 62 46 47 47 43 43 36 38 32 32 42 44 36 31 22 21 13 357 0 300 250 231 232 232 234
246 330 256 236 323 312 273 231 216 212 160 209 111 91 60 75 99 79 50 55 50 44 43 36 34 34 35 29 34 36 38 35 25 18 20 13 10 7 352 340 333 285 245 237
192 212 292 299 17 18 346 327 19 160 119 123 109 91 61 61 71 84 76 73 65 55 43 42 37 34 34 31 35 36 34 27 18 16 21 18 15 7 357 348 13 29 37 32
174 221 258 253 1 335 359 273 201 236 146 152 157 107 118 85 86 79 72 60 59 55 43 38 29 38 43 37 37 36 30 25 25 22 25 24 23 21 27 33 44 48 49 41
193 232 275 279 317 321 51 313 323 195 161 167 114 92 127 116 95 82 74 70 65 59 53 40 37 54 57 49 42 33 32 35 31 30 33 26 31 30 42 53 61 55 57 47
165 199 255 6 312 227 191 43 64 72 105 107 105 101 101 91 80 72 64 58 51 52 43 34 26 41 49 51 42 47 49 46 43 38 38 34 37 38 40 49 53 48 48 48
194 227 17 358 49 19 18 98 90 87 82 95 109 114 103 94 78 62 61 59 54 60 57 39 29 31 51 45 40 45 51 51 45 40 40 40 43 41 40 39 47 52 51 51
316 31 64 58 59 51 36 80 92 112 116 112 102 101 101 97 89 80 69 68 63 60 55 45 29 26 34 44 46 50 57 55 50 56 52 46 49 49 50 46 51 51 48 52
305 146 96 52 55 65 54 48 68 70 76 90 97 91 91 90 87 76 65 57 56 52 54 48 34 27 19 31 50 54 58 60 56 50 55 60 55 50 51 50 50 56 52 50
297 15 99 87 75 76 78 61 55 74 72 65 82 95 98 87 78 76 70 65 62 56 49 42 38 29 20 17 42 64 69 58 43 47 48 52 62 68 59 62 59 60 57 57
26 41 82 83 63 68 88 80 81 78 81 90 86 93 93 91 85 81 69 64 57 54 50 45 35 36 20 12 39 41 58 45 43 43 43 43 40 45 57 40 52 50 52 53
355 266 65 41 90 82 83 86 84 76 80 81 85 84 87 85 77 69 64 64 63 58 51 47 45 31 11 16 42 72 67 59 55 50 50 50 47 49 48 48 46 37 40 45
40 61 91 103 92 88 94 101 91 84 83 79 74 78 85 86 76 64 67 73 71 61 47 42 38 20 2 26 49 46 56 52 53 60 57 57 56 52 49 50 47 38 26 30
72 77 86 86 86 81 86 87 99 98 90 86 87 86 84 88 86 76 62 55 65 47 27 22 31 345 359 20 42 50 50 55 51 48 52 57 56 58 52 50 49 40 36 21
123 93 80 86 90 83 76 85 95 100 103 101 101 100 98 93 83 72 57 53 55 45 20 21 345 342 13 26 44 33 51 52 50 55 55 57 55 62 63 59 58 51 38 22
54 60 60 80 92 89 82 81 80 81 79 87 83 78 75 80 89 73 46 20 40 42 22 348 353 9 22 28 40 44 49 53 55 56 53 52 57 57 58 61 57 60 35 39
57 70 72 79 84 91 91 88 82 83 79 83 88 80 83 78 81 82 48 60 46 41 350 340 22 29 28 45 47 45 52 54 55 52 56 58 55 53 56 55 57 48 49 57
65 68 77 77 67 84 90 75 81 76 67 87 94 88 82 54 62 70 53 62 1 298 330 2 19 32 39 37 43 47 50 47 66 63 55 63 58 54 51 55 58 54 50 47
59 65 68 74 76 73 77 79 94 95 86 80 103 107 110 86 46 37 46 49 346 8 18 24 30 30 39 47 49 48 54 57 57 59 67 69 66 55 60 53 53 56 39 37
79 80 75 73 74 69 57 68 82 86 84 83 75 81 88 77 61 46 50 76 9 27 24 27 32 30 45 50 55 50 53 61 59 55 62 68 83 93 91 67 65 18 5 7
97 103 100 98 107 108 92 89 93 119 127 135 140 156 160 162 140 114 67 17 69 42 38 35 50 56 60 60 64 73 69 63 62 69 83 107 144 158 159 166 201 232 212 198
113 114 108 110 120 124 126 136 123 115 116 142 152 161 137 109 359 42 100 112 83 79 41 316 47 67 61 58 74 83 94 104 88 17 52 114 169 175 184 207 229 236 229 227
136 139 146 165 161 154 150 151 142 148 141 132 145 173 172 170 150 217 157 213 216 155 316 327 9 56 50 77 96 111 226 218 209 185 211 202 208 215 225 224 228 220 234 240
161 135 120 84 88 135 162 167 174 169 139 134 143 333 328 342 118 140 182 222 234 251 239 254 255 222 200 242 247 233 235 248 252 250 222 241 240 245 236 233 233 231 231 237
86 86 91 69 38 43 59 97 122 162 147 160 186 213 216 234 237 226 214 240 239 233 256 266 258 250 235 239 267 265 254 254 243 241 230 236 229 232 232 234 231 231 234 237